RCH3312 ETAR-ENOL

Flight info

Callsign RCH3312
Flight time N/A
Altitude 28000
Route RUDOT Q760 NVO DCT BASUM M170 ELSOB N125 EKERN M852 ALS P615 NEDZA P601 PIVAT DCT OSKOK DCT NELSU
Aircraft C17/H-SDE1E2FGHIJ5RTUWXY/LB1D1

Departure

Time 2026-04-18 11:53
Airport Ramstein Air Base (ETAR)

Arrival

Time N/A
Airport Ørland Airport (ENOL)
Time Latitude Longitude Altitude Speed Heading
2026-04-18 11:53 49.50084 7.36879 7594 ft 258 kts 306°
2026-04-18 11:53 49.51178 7.34681 8404 ft 260 kts 306°
2026-04-18 11:54 49.52291 7.32481 9204 ft 262 kts 307°
2026-04-18 11:54 49.53407 7.30268 10016 ft 262 kts 306°
2026-04-18 11:54 49.54525 7.28034 10765 ft 265 kts 306°
2026-04-18 11:54 49.55651 7.25777 11516 ft 267 kts 306°
2026-04-18 11:55 49.56785 7.23502 12292 ft 269 kts 305°
2026-04-18 11:55 49.57931 7.21219 13071 ft 269 kts 305°
2026-04-18 11:55 49.59079 7.18926 13880 ft 270 kts 304°
2026-04-18 11:55 49.60247 7.16572 14395 ft 281 kts 304°
2026-04-18 11:56 49.61456 7.14135 14899 ft 291 kts 304°
2026-04-18 11:56 49.62714 7.11620 15402 ft 301 kts 304°
2026-04-18 11:56 49.64010 7.09025 15897 ft 310 kts 304°
2026-04-18 11:56 49.65337 7.06352 16396 ft 318 kts 304°
2026-04-18 11:57 49.66697 7.03605 16911 ft 326 kts 304°
2026-04-18 11:57 49.68091 7.00798 17425 ft 333 kts 304°
2026-04-18 11:57 49.69538 6.97963 17978 ft 341 kts 310°
2026-04-18 11:57 49.71568 6.95968 18520 ft 356 kts 336°
2026-04-18 11:58 49.73985 6.94946 19018 ft 366 kts 346°
2026-04-18 11:58 49.76546 6.94487 19492 ft 373 kts 349°
2026-04-18 11:58 49.79147 6.94053 19981 ft 378 kts 349°
2026-04-18 11:58 49.81739 6.93589 20465 ft 381 kts 349°
2026-04-18 11:59 49.84382 6.93115 20963 ft 385 kts 349°
2026-04-18 11:59 49.87091 6.92632 21485 ft 388 kts 349°
2026-04-18 11:59 49.89748 6.92160 21998 ft 391 kts 349°
2026-04-18 11:59 49.92489 6.91672 22525 ft 393 kts 349°
2026-04-18 12:00 49.95211 6.91187 23063 ft 394 kts 349°
2026-04-18 12:00 49.97912 6.90808 23597 ft 395 kts 349°
2026-04-18 12:00 50.00616 6.90177 24078 ft 393 kts 345°
2026-04-18 12:00 50.03312 6.89473 24544 ft 393 kts 346°
2026-04-18 12:01 50.08704 6.88152 25505 ft 391 kts 346°
2026-04-18 12:01 50.11389 6.87490 25995 ft 389 kts 346°
2026-04-18 12:01 50.14061 6.86834 26501 ft 387 kts 346°
2026-04-18 12:02 50.16711 6.86183 27000 ft 385 kts 346°
2026-04-18 12:02 50.19347 6.85532 27523 ft 381 kts 345°
2026-04-18 12:02 50.21966 6.84888 27905 ft 383 kts 345°
2026-04-18 12:02 50.24620 6.84234 28059 ft 390 kts 345°
2026-04-18 12:03 50.27329 6.83567 28126 ft 399 kts 345°
2026-04-18 12:03 50.32950 6.82183 28174 ft 419 kts 346°
2026-04-18 12:04 50.38841 6.80729 28177 ft 438 kts 346°
2026-04-18 12:04 50.45001 6.79204 28173 ft 457 kts 346°
2026-04-18 12:05 50.51401 6.77608 28178 ft 474 kts 346°
2026-04-18 12:05 50.58035 6.75922 28191 ft 490 kts 345°
2026-04-18 12:06 50.64676 6.73196 28188 ft 497 kts 335°
2026-04-18 12:06 50.71321 6.69600 28193 ft 512 kts 336°
2026-04-18 12:07 50.78145 6.65894 28197 ft 525 kts 336°
2026-04-18 12:07 50.81745 6.64595 28191 ft 541 kts 352°
2026-04-18 12:07 50.85538 6.65073 28197 ft 557 kts
2026-04-18 12:07 50.89178 6.67351 28198 ft 571 kts 27°
2026-04-18 12:08 50.92445 6.71005 28200 ft 579 kts 36°
2026-04-18 12:08 50.98784 6.79085 28181 ft 587 kts 37°
2026-04-18 12:09 51.05108 6.87218 28184 ft 583 kts 37°
2026-04-18 12:09 51.11675 6.94668 28188 ft 579 kts 31°
2026-04-18 12:10 51.18383 7.01833 28188 ft 581 kts 31°
2026-04-18 12:10 51.25049 7.08955 28187 ft 580 kts 31°
2026-04-18 12:11 51.31759 7.16153 28183 ft 581 kts 31°
2026-04-18 12:11 51.38465 7.23374 28190 ft 582 kts 31°
2026-04-18 12:12 51.45171 7.30621 28192 ft 581 kts 32°
2026-04-18 12:12 51.50788 7.36709 28191 ft 581 kts 32°
2026-04-18 12:13 51.57473 7.43981 28191 ft 581 kts 32°
2026-04-18 12:13 51.64163 7.51285 28185 ft 581 kts 32°
2026-04-18 12:14 51.70848 7.58610 28187 ft 581 kts 32°
2026-04-18 12:14 51.77519 7.65945 28184 ft 581 kts 32°
2026-04-18 12:15 51.84203 7.73323 28205 ft 581 kts 32°
2026-04-18 12:15 51.90872 7.80710 28184 ft 581 kts 32°
2026-04-18 12:16 51.97541 7.88126 28189 ft 581 kts 32°
2026-04-18 12:16 52.04200 7.95555 28190 ft 581 kts 32°
2026-04-18 12:17 52.10868 8.03022 28187 ft 582 kts 32°
2026-04-18 12:17 52.17529 8.10511 28183 ft 581 kts 32°
2026-04-18 12:18 52.24131 8.17960 28182 ft 581 kts 33°
2026-04-18 12:18 52.30763 8.25472 28176 ft 581 kts 33°
2026-04-18 12:19 52.37408 8.33025 28175 ft 581 kts 33°
2026-04-18 12:19 52.44036 8.40586 28212 ft 581 kts 33°
2026-04-18 12:20 52.48472 8.45663 28200 ft 581 kts 33°